Time,TemperatureF,DewpointF,PressureIn,WindDirection,WindDirectionDegrees,WindSpeedMPH,WindSpeedGustMPH,Humidity,HourlyPrecipIn,Conditions,Clouds,dailyrainin,SoftwareType,DateUTC
2013-01-10 00:03:00,52.0,49.0,30.48,WSW,257,0.0,1.0,90,0.00,,,0.00,,2013-01-10 05:03:00,
2013-01-10 00:12:00,52.0,49.0,30.48,WSW,257,0.0,1.0,90,0.00,,,0.00,,2013-01-10 05:12:00,
2013-01-10 00:23:00,52.0,49.0,30.48,WSW,257,0.0,1.0,90,0.00,,,0.00,,2013-01-10 05:23:00,
2013-01-10 00:33:00,52.0,49.0,30.48,SW,231,0.0,2.0,90,0.00,,,0.00,,2013-01-10 05:33:00,
2013-01-10 00:43:00,52.0,49.0,30.48,SW,231,0.0,2.0,90,0.00,,,0.00,,2013-01-10 05:43:00,
2013-01-10 00:53:00,52.0,49.0,30.48,SW,231,0.0,2.0,90,0.00,,,0.00,,2013-01-10 05:53:00,
2013-01-10 01:02:00,52.0,49.0,30.48,SW,231,0.0,2.0,90,0.00,,,0.00,,2013-01-10 06:02:00,
2013-01-10 01:12:00,52.0,49.0,30.48,SW,231,0.0,2.0,90,0.00,,,0.00,,2013-01-10 06:12:00,
2013-01-10 01:22:00,52.0,49.0,30.47,SW,231,0.0,2.0,91,0.00,,,0.00,,2013-01-10 06:22:00,
2013-01-10 01:32:00,51.0,48.0,30.47,SW,231,1.0,3.0,91,0.00,,,0.00,,2013-01-10 06:32:00,
2013-01-10 01:42:00,51.0,48.0,30.47,SW,231,1.0,3.0,91,0.00,,,0.00,,2013-01-10 06:42:00,
2013-01-10 01:52:00,51.0,48.0,30.47,SW,231,0.0,2.0,90,0.00,,,0.00,,2013-01-10 06:52:00,
2013-01-10 02:02:00,51.0,48.0,30.47,SW,231,0.0,3.0,91,0.00,,,0.00,,2013-01-10 07:02:00,
2013-01-10 02:12:00,51.0,48.0,30.47,SW,231,0.0,3.0,91,0.00,,,0.00,,2013-01-10 07:12:00,
2013-01-10 02:22:00,51.0,48.0,30.46,SW,231,0.0,2.0,91,0.00,,,0.00,,2013-01-10 07:22:00,
2013-01-10 02:32:00,50.0,48.0,30.46,SW,231,0.0,3.0,92,0.00,,,0.00,,2013-01-10 07:32:00,
2013-01-10 02:42:00,50.0,48.0,30.46,SW,231,0.0,3.0,92,0.00,,,0.00,,2013-01-10 07:42:00,
2013-01-10 02:52:00,50.0,48.0,30.46,WSW,240,2.0,3.0,92,0.00,,,0.00,,2013-01-10 07:52:00,
2013-01-10 03:02:00,50.0,48.0,30.45,WSW,246,1.0,3.0,92,0.00,,,0.00,,2013-01-10 08:02:00,
2013-01-10 03:12:00,50.0,48.0,30.45,WSW,246,1.0,3.0,92,0.00,,,0.00,,2013-01-10 08:12:00,
2013-01-10 03:22:00,50.0,48.0,30.45,WSW,246,0.0,3.0,92,0.00,,,0.00,,2013-01-10 08:22:00,
2013-01-10 03:32:00,50.0,48.0,30.45,WSW,246,0.0,3.0,92,0.00,,,0.00,,2013-01-10 08:32:00,
2013-01-10 03:42:00,50.0,48.0,30.45,WSW,246,0.0,3.0,92,0.00,,,0.00,,2013-01-10 08:42:00,
2013-01-10 03:53:00,51.0,49.0,30.45,WSW,246,0.0,2.0,93,0.00,,,0.00,,2013-01-10 08:53:00,
2013-01-10 04:02:00,50.0,48.0,30.45,WSW,246,0.0,2.0,93,0.00,,,0.00,,2013-01-10 09:02:00,
2013-01-10 04:12:00,50.0,48.0,30.45,WSW,246,0.0,2.0,93,0.00,,,0.00,,2013-01-10 09:12:00,
2013-01-10 04:22:00,51.0,49.0,30.45,WSW,246,0.0,2.0,93,0.00,,,0.00,,2013-01-10 09:22:00,
2013-01-10 04:32:00,51.0,49.0,30.45,WSW,246,0.0,3.0,93,0.00,,,0.00,,2013-01-10 09:32:00,
2013-01-10 04:42:00,51.0,49.0,30.45,WSW,246,0.0,3.0,93,0.00,,,0.00,,2013-01-10 09:42:00,
2013-01-10 04:53:00,51.0,49.0,30.45,WSW,246,0.0,1.0,92,0.00,,,0.00,,2013-01-10 09:53:00,
2013-01-10 05:03:00,51.0,49.0,30.44,WSW,246,0.0,2.0,93,0.00,,,0.00,,2013-01-10 10:03:00,
2013-01-10 05:12:00,51.0,49.0,30.44,WSW,246,0.0,2.0,93,0.00,,,0.00,,2013-01-10 10:12:00,
2013-01-10 05:22:00,50.0,48.0,30.44,WSW,246,1.0,3.0,92,0.00,,,0.00,,2013-01-10 10:22:00,
2013-01-10 05:32:00,50.0,48.0,30.43,WSW,246,0.0,2.0,93,0.00,,,0.00,,2013-01-10 10:32:00,
2013-01-10 05:42:00,50.0,48.0,30.43,WSW,246,0.0,2.0,93,0.00,,,0.00,,2013-01-10 10:42:00,
2013-01-10 05:53:00,50.0,48.0,30.43,WSW,246,0.0,0.0,93,0.00,,,0.00,,2013-01-10 10:53:00,
2013-01-10 06:02:00,50.0,48.0,30.43,WSW,246,0.0,2.0,93,0.00,,,0.00,,2013-01-10 11:02:00,
2013-01-10 06:12:00,50.0,48.0,30.43,WSW,246,0.0,2.0,93,0.00,,,0.00,,2013-01-10 11:12:00,
2013-01-10 06:22:00,50.0,48.0,30.44,WSW,246,0.0,0.0,92,0.00,,,0.00,,2013-01-10 11:22:00,
2013-01-10 06:33:00,49.0,47.0,30.45,WSW,246,0.0,0.0,93,0.00,,,0.00,,2013-01-10 11:33:00,
2013-01-10 06:43:00,49.0,47.0,30.45,WSW,246,0.0,0.0,93,0.00,,,0.00,,2013-01-10 11:43:00,
2013-01-10 06:53:00,49.0,47.0,30.44,WSW,246,0.0,1.0,94,0.00,,,0.00,,2013-01-10 11:53:00,
2013-01-10 07:03:00,49.0,47.0,30.44,WSW,246,0.0,0.0,94,0.00,,,0.00,,2013-01-10 12:03:00,
2013-01-10 07:12:00,49.0,47.0,30.44,WSW,246,0.0,0.0,94,0.00,,,0.00,,2013-01-10 12:12:00,
2013-01-10 07:22:00,49.0,47.0,30.45,WSW,246,0.0,0.0,94,0.00,,,0.00,,2013-01-10 12:22:00,
2013-01-10 07:33:00,49.0,47.0,30.45,WSW,246,0.0,0.0,94,0.00,,,0.00,,2013-01-10 12:33:00,
2013-01-10 07:43:00,49.0,47.0,30.45,WSW,246,0.0,0.0,94,0.00,,,0.00,,2013-01-10 12:43:00,
2013-01-10 07:53:00,49.0,47.0,30.45,WSW,246,0.0,0.0,94,0.00,,,0.00,,2013-01-10 12:53:00,
2013-01-10 08:02:00,49.0,47.0,30.45,WSW,246,0.0,0.0,94,0.00,,,0.00,,2013-01-10 13:02:00,
2013-01-10 08:12:00,49.0,47.0,30.45,WSW,246,0.0,0.0,94,0.00,,,0.00,,2013-01-10 13:12:00,
2013-01-10 08:22:00,49.0,48.0,30.45,WSW,246,0.0,1.0,95,0.00,,,0.00,,2013-01-10 13:22:00,
2013-01-10 08:32:00,49.0,47.0,30.46,WSW,246,0.0,1.0,94,0.00,,,0.00,,2013-01-10 13:32:00,
2013-01-10 08:42:00,49.0,47.0,30.46,WSW,246,0.0,1.0,94,0.00,,,0.00,,2013-01-10 13:42:00,
2013-01-10 08:53:00,50.0,49.0,30.46,WSW,246,0.0,0.0,95,0.00,,,0.00,,2013-01-10 13:53:00,
2013-01-10 09:02:00,50.0,48.0,30.47,WSW,246,0.0,0.0,94,0.00,,,0.00,,2013-01-10 14:02:00,
2013-01-10 09:12:00,50.0,48.0,30.47,WSW,246,0.0,0.0,94,0.00,,,0.00,,2013-01-10 14:12:00,
2013-01-10 09:22:00,51.0,49.0,30.47,WSW,246,0.0,0.0,94,0.00,,,0.00,,2013-01-10 14:22:00,
2013-01-10 09:33:00,51.0,49.0,30.47,WSW,243,0.0,0.0,94,0.00,,,0.00,,2013-01-10 14:33:00,
2013-01-10 09:43:00,51.0,49.0,30.47,WSW,243,0.0,0.0,94,0.00,,,0.00,,2013-01-10 14:43:00,
2013-01-10 09:53:00,51.0,49.0,30.47,WSW,244,0.0,0.0,94,0.00,,,0.00,,2013-01-10 14:53:00,
2013-01-10 10:03:00,51.0,49.0,30.47,WSW,244,0.0,0.0,94,0.00,,,0.00,,2013-01-10 15:03:00,
2013-01-10 10:12:00,51.0,49.0,30.47,WSW,244,0.0,0.0,94,0.00,,,0.00,,2013-01-10 15:12:00,
2013-01-10 10:23:00,51.0,49.0,30.47,WSW,244,0.0,0.0,94,0.00,,,0.00,,2013-01-10 15:23:00,
2013-01-10 10:33:00,52.0,51.0,30.47,WSW,244,0.0,0.0,95,0.00,,,0.00,,2013-01-10 15:33:00,
2013-01-10 10:43:00,52.0,51.0,30.47,WSW,244,0.0,0.0,95,0.00,,,0.00,,2013-01-10 15:43:00,
2013-01-10 10:53:00,53.0,51.0,30.47,WSW,244,0.0,2.0,92,0.00,,,0.00,,2013-01-10 15:53:00,
2013-01-10 11:03:00,54.0,51.0,30.47,East,90,1.0,3.0,90,0.00,,,0.00,,2013-01-10 16:03:00,
2013-01-10 11:13:00,54.0,51.0,30.47,East,90,1.0,3.0,90,0.00,,,0.00,,2013-01-10 16:13:00,
2013-01-10 11:23:00,55.0,52.0,30.46,East,90,0.0,3.0,89,0.00,,,0.00,,2013-01-10 16:23:00,
2013-01-10 11:33:00,57.0,53.0,30.46,ENE,70,0.0,2.0,85,0.00,,,0.00,,2013-01-10 16:33:00,
2013-01-10 11:43:00,57.0,53.0,30.46,ENE,70,0.0,2.0,85,0.00,,,0.00,,2013-01-10 16:43:00,
2013-01-10 11:53:00,56.0,52.0,30.46,ENE,68,1.0,3.0,85,0.00,,,0.00,,2013-01-10 16:53:00,
2013-01-10 12:03:00,56.0,52.0,30.45,ENE,70,1.0,5.0,85,0.00,,,0.00,,2013-01-10 17:03:00,
2013-01-10 12:12:00,56.0,52.0,30.45,ENE,70,1.0,5.0,85,0.00,,,0.00,,2013-01-10 17:12:00,
2013-01-10 12:23:00,57.0,52.0,30.43,NNE,16,0.0,3.0,84,0.00,,,0.00,,2013-01-10 17:23:00,
2013-01-10 12:33:00,58.0,53.0,30.42,ENE,60,2.0,6.0,82,0.00,,,0.00,,2013-01-10 17:33:00,
2013-01-10 12:43:00,58.0,53.0,30.42,ENE,60,2.0,6.0,82,0.00,,,0.00,,2013-01-10 17:43:00,
2013-01-10 12:53:00,58.0,53.0,30.41,ENE,70,1.0,5.0,83,0.00,,,0.00,,2013-01-10 17:53:00,
2013-01-10 13:03:00,58.0,52.0,30.40,ENE,78,2.0,6.0,81,0.00,,,0.00,,2013-01-10 18:03:00,
2013-01-10 13:12:00,59.0,53.0,30.40,ENE,60,0.0,6.0,80,0.00,,,0.00,,2013-01-10 18:12:00,
2013-01-10 13:23:00,59.0,53.0,30.40,ENE,60,0.0,6.0,80,0.00,,,0.00,,2013-01-10 18:23:00,
2013-01-10 13:33:00,59.0,52.0,30.38,NE,55,0.0,4.0,78,0.00,,,0.00,,2013-01-10 18:33:00,
2013-01-10 13:43:00,60.0,53.0,30.38,ENE,69,0.0,5.0,77,0.00,,,0.00,,2013-01-10 18:43:00,
2013-01-10 13:53:00,60.0,53.0,30.38,ENE,69,0.0,5.0,77,0.00,,,0.00,,2013-01-10 18:53:00,
2013-01-10 14:03:00,60.0,53.0,30.37,ENE,75,2.0,6.0,77,0.00,,,0.00,,2013-01-10 19:03:00,
2013-01-10 14:13:00,60.0,53.0,30.36,NE,37,1.0,4.0,77,0.00,,,0.00,,2013-01-10 19:13:00,
2013-01-10 14:23:00,60.0,53.0,30.36,NE,37,1.0,4.0,77,0.00,,,0.00,,2013-01-10 19:23:00,
2013-01-10 14:33:00,61.0,52.0,30.36,NNW,343,1.0,5.0,73,0.00,,,0.00,,2013-01-10 19:33:00,
2013-01-10 14:43:00,61.0,52.0,30.36,NNW,343,1.0,5.0,73,0.00,,,0.00,,2013-01-10 19:43:00,
2013-01-10 14:53:00,60.0,51.0,30.36,NE,50,0.0,6.0,73,0.00,,,0.00,,2013-01-10 19:53:00,
2013-01-10 15:03:00,61.0,52.0,30.36,ENE,64,2.0,5.0,73,0.00,,,0.00,,2013-01-10 20:03:00,
2013-01-10 15:13:00,61.0,52.0,30.36,ENE,64,2.0,5.0,73,0.00,,,0.00,,2013-01-10 20:13:00,
2013-01-10 15:24:00,62.0,52.0,30.35,East,85,0.0,4.0,70,0.00,,,0.00,,2013-01-10 20:24:00,
2013-01-10 15:33:00,62.0,52.0,30.35,NNE,19,1.0,4.0,69,0.00,,,0.00,,2013-01-10 20:33:00,
2013-01-10 15:43:00,62.0,52.0,30.35,NNE,19,1.0,4.0,69,0.00,,,0.00,,2013-01-10 20:43:00,
2013-01-10 15:53:00,62.0,52.0,30.35,NNE,19,1.0,4.0,69,0.00,,,0.00,,2013-01-10 20:53:00,
2013-01-10 16:04:00,62.0,52.0,30.35,NNW,339,0.0,6.0,70,0.00,,,0.00,,2013-01-10 21:04:00,
2013-01-10 16:13:00,61.0,52.0,30.35,NNW,336,1.0,8.0,71,0.00,,,0.00,,2013-01-10 21:13:00,
2013-01-10 16:23:00,61.0,52.0,30.35,NNW,336,1.0,8.0,71,0.00,,,0.00,,2013-01-10 21:23:00,
2013-01-10 16:33:00,61.0,52.0,30.35,NNW,345,1.0,6.0,72,0.00,,,0.00,,2013-01-10 21:33:00,
2013-01-10 16:43:00,61.0,52.0,30.35,NNW,345,1.0,6.0,72,0.00,,,0.00,,2013-01-10 21:43:00,
2013-01-10 16:53:00,60.0,51.0,30.36,NW,309,1.0,5.0,73,0.00,,,0.00,,2013-01-10 21:53:00,
2013-01-10 17:04:00,59.0,51.0,30.36,NW,305,0.0,2.0,74,0.00,,,0.00,,2013-01-10 22:04:00,
2013-01-10 17:13:00,59.0,51.0,30.36,NW,305,0.0,2.0,74,0.00,,,0.00,,2013-01-10 22:13:00,
2013-01-10 17:33:00,58.0,51.0,30.35,NW,320,0.0,2.0,77,0.00,,,0.00,,2013-01-10 22:33:00,
2013-01-10 17:43:00,58.0,51.0,30.35,NW,320,0.0,2.0,77,0.00,,,0.00,,2013-01-10 22:43:00,
2013-01-10 18:03:00,56.0,50.0,30.35,NW,306,0.0,3.0,80,0.00,,,0.00,,2013-01-10 23:03:00,
2013-01-10 18:13:00,55.0,49.0,30.35,West,272,1.0,3.0,81,0.00,,,0.00,,2013-01-10 23:13:00,
2013-01-10 18:23:00,55.0,49.0,30.35,West,272,1.0,3.0,81,0.00,,,0.00,,2013-01-10 23:23:00,
2013-01-10 18:33:00,54.0,49.0,30.35,West,260,0.0,4.0,83,0.00,,,0.00,,2013-01-10 23:33:00,
2013-01-10 18:43:00,54.0,49.0,30.35,West,260,0.0,4.0,83,0.00,,,0.00,,2013-01-10 23:43:00,
2013-01-10 18:53:00,54.0,49.0,30.35,SW,229,0.0,3.0,84,0.00,,,0.00,,2013-01-10 23:53:00,
2013-01-10 19:03:00,54.0,49.0,30.35,SW,229,0.0,3.0,84,0.00,,,0.00,,2013-01-11 00:03:00,
2013-01-10 19:13:00,54.0,49.0,30.35,SW,229,0.0,3.0,84,0.00,,,0.00,,2013-01-11 00:13:00,
2013-01-10 19:23:00,54.0,50.0,30.35,WNW,303,0.0,1.0,85,0.00,,,0.00,,2013-01-11 00:23:00,
2013-01-10 19:33:00,54.0,50.0,30.34,SE,129,0.0,2.0,85,0.00,,,0.00,,2013-01-11 00:33:00,
2013-01-10 19:43:00,54.0,50.0,30.34,SE,129,0.0,2.0,85,0.00,,,0.00,,2013-01-11 00:43:00,
2013-01-10 19:53:00,53.0,49.0,30.34,WNW,287,1.0,3.0,85,0.00,,,0.00,,2013-01-11 00:53:00,
2013-01-10 20:03:00,53.0,49.0,30.34,West,266,0.0,3.0,86,0.00,,,0.00,,2013-01-11 01:03:00,
2013-01-10 20:13:00,53.0,49.0,30.33,WSW,239,0.0,4.0,87,0.00,,,0.00,,2013-01-11 01:13:00,
2013-01-10 20:23:00,53.0,49.0,30.33,WSW,239,0.0,4.0,87,0.00,,,0.00,,2013-01-11 01:23:00,
2013-01-10 20:34:00,53.0,49.0,30.33,WSW,253,0.0,3.0,86,0.00,,,0.00,,2013-01-11 01:34:00,
2013-01-10 20:43:00,53.0,49.0,30.33,WSW,253,0.0,3.0,86,0.00,,,0.00,,2013-01-11 01:43:00,
2013-01-10 20:53:00,54.0,50.0,30.32,WSW,253,0.0,3.0,85,0.00,,,0.00,,2013-01-11 01:53:00,
2013-01-10 21:03:00,54.0,49.0,30.32,WSW,253,0.0,2.0,84,0.00,,,0.00,,2013-01-11 02:03:00,
2013-01-10 21:13:00,54.0,49.0,30.32,WSW,253,0.0,2.0,84,0.00,,,0.00,,2013-01-11 02:13:00,
2013-01-10 21:23:00,54.0,49.0,30.32,WSW,253,0.0,2.0,84,0.00,,,0.00,,2013-01-11 02:23:00,
2013-01-10 21:33:00,54.0,49.0,30.32,WSW,255,0.0,2.0,84,0.00,,,0.00,,2013-01-11 02:33:00,
2013-01-10 21:43:00,54.0,49.0,30.32,WSW,255,0.0,2.0,84,0.00,,,0.00,,2013-01-11 02:43:00,
2013-01-10 21:54:00,54.0,49.0,30.32,WSW,255,0.0,2.0,84,0.00,,,0.00,,2013-01-11 02:54:00,
2013-01-10 22:03:00,54.0,49.0,30.32,SW,224,1.0,5.0,82,0.00,,,0.00,,2013-01-11 03:03:00,
2013-01-10 22:12:00,54.0,49.0,30.32,SW,224,1.0,5.0,82,0.00,,,0.00,,2013-01-11 03:12:00,
2013-01-10 22:23:00,54.0,49.0,30.31,South,187,0.0,6.0,82,0.00,,,0.00,,2013-01-11 03:23:00,
2013-01-10 22:33:00,53.0,48.0,30.30,South,191,1.0,4.0,82,0.00,,,0.00,,2013-01-11 03:33:00,
2013-01-10 22:43:00,53.0,48.0,30.30,South,191,1.0,4.0,82,0.00,,,0.00,,2013-01-11 03:43:00,
2013-01-10 22:53:00,53.0,48.0,30.29,SE,131,0.0,4.0,82,0.00,,,0.00,,2013-01-11 03:53:00,
2013-01-10 23:02:00,53.0,47.0,30.28,ESE,109,0.0,4.0,81,0.00,,,0.00,,2013-01-11 04:02:00,
2013-01-10 23:12:00,53.0,47.0,30.28,ESE,109,0.0,4.0,81,0.00,,,0.00,,2013-01-11 04:12:00,
2013-01-10 23:33:00,52.0,47.0,30.27,SE,125,0.0,3.0,83,0.00,,,0.00,,2013-01-11 04:33:00,
2013-01-10 23:43:00,52.0,47.0,30.27,SE,125,0.0,3.0,83,0.00,,,0.00,,2013-01-11 04:43:00,
2013-01-10 23:53:00,52.0,48.0,30.27,SW,235,0.0,3.0,85,0.00,,,0.00,,2013-01-11 04:53:00,